Regional Weather Roundup
Issued by NWS

Home | Current Version | Previous Version | Text Only | Print | Product List | Glossary On
Versions: 1 2 3 4 5 6 7 8 9 10 11 12 13 14 15 16 17 18 19 20 21 22 23 24 25 26 27
000
ASUS45 KREV 310610
RWRNV
NEVADA REGIONAL WEATHER ROUNDUP
NATIONAL WEATHER SERVICE RENO NV
1100 PM PDT FRI JUL 30 2021

NOTE: "FAIR" INDICATES FEW OR NO CLOUDS BELOW 12,000 FEET WITH NO
SIGNIFICANT WEATHER AND/OR OBSTRUCTIONS TO VISIBILITY.

NVZ001-003-004-310700-
WESTERN NEVADA

CITY           SKY/WX    TMP DP  RH WIND       PRES   REMARKS
RENO           CLOUDY    75  51  43 S20       30.16S
6HR MIN TEMP:  74; 6HR MAX TEMP:  91;

CARSON CITY    MOCLDY    70  52  52 CALM      30.23F
MINDEN         MOCLDY    66  55  68 CALM      30.22S
SLIDE MTN        N/A     55  46  71 NW1         N/A
PYRAMID LAKE     N/A     84 N/A N/A S8          N/A
FALLON         CLOUDY    73  57  57 S9        30.16S
6HR MIN TEMP:  73; 6HR MAX TEMP:  95;

LOVELOCK       MOCLDY    73  58  59 S10       30.13R
6HR MIN TEMP:  73; 6HR MAX TEMP:  97; 6HR PCP:  0.02;

HAWTHORNE      CLOUDY    73  55  53 SE9       30.19F
$$

NVZ002-CAZ072-073-310700-
NORTHERN AND CENTRAL SIERRA

CITY           SKY/WX    TMP DP  RH WIND       PRES   REMARKS
S. LAKE TAHOE  CLOUDY    61  54  77 CALM      30.30S
6HR MIN TEMP:  61; 6HR MAX TEMP:  76; 6HR PCP: TRACE;

TRUCKEE        CLOUDY    63  50  63 CALM      30.28F
SQUAW VLY 8000   N/A      1 -31  20 W2          N/A
SUSANVILLE     CLOUDY    75  48  38 N6        30.13R HAZE
BLUE CANYON    CLOUDY    72  46  39 CALM      30.25R
MAMMOTH LAKES  FAIR      57  48  72 W8        30.40S
BRIDGEPORT       N/A     55  48  76 W2          N/A
$$

NVZ030-031-036-310700-
NORTHERN NEVADA

CITY           SKY/WX    TMP DP  RH WIND       PRES   REMARKS
ELKO           MOCLDY    69  61  75 NE6       30.24F
6HR MIN TEMP:  67; 6HR MAX TEMP:  77; 6HR PCP:  0.04;

WINNEMUCCA     RAIN      73  61  65 SW7       30.17R
6HR MIN TEMP:  73; 6HR MAX TEMP:  96; 6HR PCP: TRACE;

BATTLE MOUNTAI CLOUDY    66  64  94 E10       30.23S
WENDOVER       CLOUDY    76  60  57 N5        30.17S
$$

NVZ035-037-310700-
CENTRAL NEVADA

CITY           SKY/WX    TMP DP  RH WIND       PRES   REMARKS
ELY            CLOUDY    63  55  75 SW9       30.32S
6HR MIN TEMP:  63; 6HR MAX TEMP:  75; 6HR PCP: TRACE;

EUREKA           N/A     63  58  83 W8        30.29R
6HR MIN TEMP:  63; 6HR MAX TEMP:  68; 6HR PCP:  0.03;

$$

NVZ013-014-310700-
SOUTH CENTRAL NEVADA

CITY           SKY/WX    TMP DP  RH WIND       PRES   REMARKS
TONOPAH        CLOUDY    71  51  49 SW6       30.28S
6HR MIN TEMP:  71; 6HR MAX TEMP:  84;

$$

NVZ017-020-022-310700-
SOUTHERN NEVADA

CITY           SKY/WX    TMP DP  RH WIND       PRES   REMARKS
LAS VEGAS      MOCLDY    85  59  41 S6        30.01S
6HR MIN TEMP:  85; 6HR MAX TEMP:  90;

N. LAS VEGAS   MOCLDY    86  62  44 E3        30.00R
6HR MIN TEMP:  86; 6HR MAX TEMP:  94;

NELLIS AFB     MOCLDY    86  59  39 S7        29.98S
6HR MIN TEMP:  86; 6HR MAX TEMP:  94;

HENDERSON      MOCLDY    81  63  54 S7        30.05S
6HR MIN TEMP:  81; 6HR MAX TEMP:  87;

MERCURY        CLOUDY    73  66  78 NE5       30.12F
6HR MIN TEMP:  72; 6HR MAX TEMP:  88; 6HR PCP:  0.17;

$$



USA.gov is the U.S. government's official web portal to all federal, state and local government web resources and services.